Flag for Norway Weather past 2 weeks in Florø, Norway

Now
54 °F

Scattered clouds.


Feels Like: 49 °F
Forecast: 45 / 49 °F
Wind: 18 mph from South

Location: Floro

Current Time: May 6, 2015 at 5:40:47 PM

Latest Report: May 6, 2015 at 4:50 PM


Visibility: N/A

Pressure: 29.42 "Hg

Humidity: 54%

Dew point: 37 °F

Location of FlorøLocation

Historic Weather in Florø — Graph

°F

Florø temperature yesterday

Maximum temperature yesterday: 61 °F (at 1:50 PM)
Minimum temperature yesterday: 46 °F (at 12:20 AM)
Average temperature yesterday: 51 °F

Past Weeks' High & Low Weather Summary

 TemperatureHumidityPressure
High61 °F (May 5, 1:50 PM)100% (Apr 25, 7:20 AM)30.45 "Hg (Apr 25, 7:20 AM)
Low34 °F (Apr 24, 1:50 AM)35% (May 3, 1:20 PM)29.18 "Hg (Apr 25, 4:50 PM)
Average43 °F70%29.72 "Hg
* Reported Apr 21 4:20 PM — May 6 4:20 PM, Florø, Weather by CustomWeather, © 2015

Note: Actual official high and low records may vary slightly from our data, if they occured in-between our weather recording intervals... More about our weather records

Advertising

Florø weather history for previous 24 hours

 ConditionsComfort  
Time TempWeatherWind HumidityBarometerVisibility
4:20 PM
Wed, May 6
54 °FScattered clouds.20 mph58%29.45 "HgN/A
3:50 PM55 °FScattered clouds.23 mph55%29.45 "HgN/A
3:20 PM54 °FScattered clouds.24 mph58%29.45 "HgN/A
2:50 PM54 °FScattered showers. Scattered clouds.25 mph63%29.45 "HgN/A
2:20 PM52 °FScattered showers. Scattered clouds.21 mph72%29.42 "HgN/A
1:50 PM54 °FScattered showers. Scattered clouds.23 mph72%29.42 "HgN/A
1:20 PM50 °FScattered showers. Scattered clouds.29 mph82%29.42 "HgN/A
12:50 PM50 °FScattered showers. Scattered clouds.20 mph88%29.42 "HgN/A
12:20 PM48 °FSprinkles. Broken clouds.21 mph87%29.39 "HgN/A
11:50 AM50 °FSprinkles. Broken clouds.21 mph76%29.39 "HgN/A
11:20 AM52 °FSprinkles. Broken clouds.15 mph67%29.36 "HgN/A
10:50 AM52 °FSprinkles. Scattered clouds.22 mph72%29.36 "HgN/A
10:20 AM52 °FSprinkles. Broken clouds.23 mph72%29.33 "HgN/A
9:50 AM54 °FSprinkles. Partly sunny.20 mph58%29.33 "HgN/A
9:20 AM54 °FPartly sunny.21 mph58%29.33 "HgN/A
8:50 AM54 °FScattered clouds.23 mph58%29.33 "HgN/A
8:20 AM54 °FPartly sunny.22 mph58%29.30 "HgN/A
7:50 AM52 °FScattered clouds.20 mph62%29.30 "HgN/A
7:20 AM52 °FScattered clouds.18 mph62%29.33 "HgN/A
6:50 AM52 °FScattered clouds.23 mph62%29.33 "HgN/A
6:20 AM52 °FScattered clouds.21 mph62%29.30 "HgN/A
5:50 AM52 °FPassing clouds.22 mph62%29.30 "HgN/A
4:50 AM50 °FPassing clouds.26 mph71%29.30 "HgN/A
4:20 AM52 °FOvercast.32 mph67%29.30 "HgN/A
3:50 AM50 °FOvercast.25 mph82%29.27 "HgN/A
3:20 AM52 °FMostly cloudy.35 mph82%29.24 "HgN/A
2:50 AM52 °FLight rain. Mostly cloudy.20 mph77%29.24 "Hg4 mi
2:20 AM55 °FOvercast.22 mph63%29.21 "HgN/A
1:50 AM55 °FOvercast.18 mph63%29.18 "HgN/A
1:20 AM54 °FLight rain. Overcast.15 mph67%29.18 "HgN/A
12:50 AM54 °FOvercast.18 mph67%29.18 "HgN/A
11:50 PM
Tue, May 5
55 °FOvercast.14 mph63%29.18 "HgN/A
11:20 PM55 °FPassing clouds.14 mph59%29.21 "HgN/A
10:50 PM54 °FPartly sunny.16 mph63%29.21 "HgN/A
10:20 PM54 °FPartly sunny.18 mph63%29.21 "HgN/A
9:50 PM52 °FPartly sunny.22 mph72%29.21 "HgN/A
9:20 PM50 °FScattered showers. Partly sunny.15 mph82%29.24 "HgN/A
8:50 PM46 °FLight rain. Partly sunny.16 mph87%29.24 "HgN/A
8:20 PM46 °FLight rain. Partly sunny.21 mph87%29.27 "HgN/A
7:50 PM48 °FLight rain. Broken clouds.21 mph82%29.27 "HgN/A
7:20 PM50 °FScattered showers. Broken clouds.18 mph82%29.30 "HgN/A
6:50 PM52 °FLight rain. Broken clouds.16 mph72%29.33 "HgN/A
6:20 PM52 °FLight rain. Broken clouds.21 mph67%29.36 "HgN/A
5:50 PM55 °FScattered showers. Broken clouds.17 mph55%29.36 "HgN/A
5:20 PM55 °FPartly sunny.16 mph55%29.39 "HgN/A
Weather by CustomWeather, © 2015

See weather overviewHow to use our weather pages